TimePST,TemperatureF,Dew PointF,Humidity,Sea Level PressureIn,VisibilityMPH,Wind Direction,Wind SpeedMPH,Gust SpeedMPH,PrecipitationIn,Events,Conditions,WindDirDegrees,DateUTC
12:00 AM,51.8,42.8,71,29.97,10.0,SE,6.9,-,N/A,,Overcast,140,2013-02-08 08:00:00
12:53 AM,51.1,42.1,71,29.95,10.0,Variable,5.8,-,N/A,,Overcast,0,2013-02-08 08:53:00
1:01 AM,50.0,41.0,71,29.96,10.0,West,6.9,-,N/A,,Mostly Cloudy,260,2013-02-08 09:01:00
1:53 AM,48.9,39.0,69,29.94,10.0,WSW,9.2,-,N/A,,Partly Cloudy,250,2013-02-08 09:53:00
2:53 AM,46.9,37.0,68,29.93,10.0,West,4.6,-,N/A,,Clear,260,2013-02-08 10:53:00
3:53 AM,46.9,37.0,68,29.93,10.0,Calm,Calm,-,N/A,,Scattered Clouds,0,2013-02-08 11:53:00
4:53 AM,46.0,36.0,68,29.93,10.0,SW,4.6,-,N/A,,Scattered Clouds,220,2013-02-08 12:53:00
5:53 AM,45.0,36.0,71,29.94,10.0,Calm,Calm,-,N/A,,Partly Cloudy,0,2013-02-08 13:53:00
6:39 AM,44.6,35.6,71,29.96,10.0,Calm,Calm,-,N/A,,Mostly Cloudy,0,2013-02-08 14:39:00
6:53 AM,46.0,36.0,68,29.95,10.0,Calm,Calm,-,N/A,,Overcast,0,2013-02-08 14:53:00
7:31 AM,46.4,35.6,66,29.97,10.0,East,4.6,-,N/A,,Mostly Cloudy,100,2013-02-08 15:31:00
7:53 AM,46.9,37.0,68,29.96,10.0,SE,4.6,-,N/A,,Overcast,130,2013-02-08 15:53:00
8:53 AM,48.9,36.0,61,29.95,10.0,Calm,Calm,-,N/A,,Mostly Cloudy,0,2013-02-08 16:53:00
9:53 AM,48.9,36.0,61,29.95,10.0,Calm,Calm,-,N/A,,Mostly Cloudy,0,2013-02-08 17:53:00
10:53 AM,51.1,33.1,50,29.93,10.0,Variable,6.9,-,N/A,,Overcast,0,2013-02-08 18:53:00
11:53 AM,51.1,35.1,54,29.91,10.0,SSE,4.6,-,N/A,,Overcast,160,2013-02-08 19:53:00
12:53 PM,50.0,39.0,66,29.87,10.0,SSE,9.2,-,0.02,,Mostly Cloudy,160,2013-02-08 20:53:00
1:53 PM,48.9,37.9,66,29.86,9.0,WSW,16.1,-,0.00,Rain-Hail,Heavy Rain,240,2013-02-08 21:53:00
2:09 PM,44.6,35.6,71,29.87,8.0,South,3.5,-,0.05,Rain,Light Rain,180,2013-02-08 22:09:00
2:53 PM,50.0,33.1,52,29.85,10.0,Calm,Calm,-,0.05,,Scattered Clouds,0,2013-02-08 22:53:00
3:53 PM,50.0,37.0,61,29.84,10.0,East,6.9,-,N/A,,Mostly Cloudy,90,2013-02-08 23:53:00
4:53 PM,48.0,35.1,61,29.85,10.0,West,9.2,18.4,N/A,,Overcast,280,2013-02-09 00:53:00
5:53 PM,44.1,36.0,73,29.87,7.0,NNW,9.2,18.4,0.01,Rain,Heavy Rain,330,2013-02-09 01:53:00
6:32 PM,44.6,37.4,76,29.88,10.0,West,4.6,-,0.01,,Overcast,270,2013-02-09 02:32:00
6:53 PM,44.1,37.0,76,29.87,10.0,Calm,Calm,-,0.01,,Mostly Cloudy,0,2013-02-09 02:53:00
7:53 PM,43.0,37.0,80,29.87,10.0,NNW,5.8,-,N/A,,Partly Cloudy,330,2013-02-09 03:53:00
8:53 PM,43.0,37.0,80,29.87,10.0,WNW,5.8,-,N/A,,Partly Cloudy,290,2013-02-09 04:53:00
9:53 PM,43.0,36.0,76,29.89,10.0,Calm,Calm,-,N/A,,Clear,0,2013-02-09 05:53:00
10:53 PM,42.1,35.1,76,29.90,10.0,Calm,Calm,-,N/A,,Partly Cloudy,0,2013-02-09 06:53:00
11:53 PM,39.9,34.0,79,29.91,10.0,WNW,4.6,-,N/A,,Partly Cloudy,300,2013-02-09 07:53:00